Regional Weather Roundup
Issued by NWS Columbia, SC

Home | Current Version | Previous Version | Text Only | Print | Product List | Glossary On
Versions: 1 2 3 4 5 6 7 8 9 10 11 12 13 14 15 16 17 18 19 20 21 22 23 24 25 26 27 28 29 30 31 32 33 34 35 36 37 38 39 40 41 42 43 44 45 46 47 48 49 50
000
ASUS42 KCAE 290310
RWRCAE
REGIONAL WEATHER ROUNDUP
NATIONAL WEATHER SERVICE COLUMBIA SC
1000 PM EST SUN DEC 28 2014

NOTE: "FAIR" INDICATES FEW OR NO CLOUDS BELOW 12,000 FEET WITH NO
SIGNIFICANT WEATHER AND/OR OBSTRUCTIONS TO VISIBILITY.

NOT ALL STATIONS ARE QUALITY CONTROLLED BY THE NATIONAL
WEATHER SERVICE. USE DATA WITH CAUTION...ESPECIALLY
DEWPOINT OBSERVATIONS.

SCZ001>056-GAZ040-063>065-077-290400-
...UPSTATE SOUTH CAROLINA...

CITY           SKY/WX    TMP DP  RH WIND       PRES   REMARKS
ANDERSON       CLOUDY    56  55  97 CALM      30.06F
LIBERTY        HAZE      55  40  55 MISG      30.05F VSB 1/4
SPARTANBURG    CLOUDY    57 N/A N/A SW3       30.07S FOG
CLEMSON        CLOUDY    58  54  86 CALM      30.06F FOG
GREENVILLE     FOG       55  54  96 CALM      30.07S VSB 1/2
GREENWOOD      CLOUDY    58  56  93 SW3       30.08S
GREER          CLOUDY    55  55 100 SW3       30.05F FOG
ROCK HILL      CLOUDY    57  56  96 W3        30.08R
CHESTER        CLOUDY    59  57  94 CALM      30.08S FOG
LAURENS        CLOUDY    55  55 100 CALM      30.07R FOG


...CENTRAL SOUTH CAROLINA...

CITY           SKY/WX    TMP DP  RH WIND       PRES   REMARKS
COLUMBIA APT   FOG       58  57  97 CALM      30.07R VSB 1/2
COLUMBIA OWENS CLOUDY    61  57  87 CALM      30.08R
DARLINGTON     CLOUDY    61  55  82 CALM      30.08S
FLORENCE       CLOUDY    62  59  90 SW3       30.07R
MCENTIRE ANGB  CLOUDY    59  58  99 CALM      30.08R
ORANGEBURG     MOCLDY    61  58  90 CALM      30.08R
SUMTER SHAW    CLOUDY    60  58  94 SW5       30.07R
NEWBERRY       CLOUDY    57 N/A N/A SW5       30.09F
AIKEN          CLOUDY    59  59 100 S3        30.10S
BARNWELL         N/A     61  61 100 CALM      30.08S
MANNING        CLOUDY    64 N/A N/A CALM      30.08R
CAMDEN         CLOUDY    59  57  94 W3        30.08S
LANCASTER      CLOUDY    57  57 100 W5        30.08R
WINNSBORO      CLOUDY    59  59 100 CALM      30.07R


...EASTERN AND COASTAL SOUTH CAROLINA...

CITY           SKY/WX    TMP DP  RH WIND       PRES   REMARKS
MYRTLE BEACH   MOCLDY    63  57  82 CALM      30.10R
N MYRTLE BCH   MOCLDY    61  58  90 SW5       30.07S
CONWAY         CLOUDY    63  63 100 CALM      30.08R
MARION         FAIR      59  59 100 CALM      30.07S
HARTSVILLE     CLOUDY    63  63 100 CALM      30.08S
FLORENCE       CLOUDY    62  59  90 SW3       30.07R
DARLINGTON     CLOUDY    61  55  82 CALM      30.08S
CHARLESTON APT MOCLDY    62  60  93 CALM      30.08S
MOUNT PLEASANT FAIR      64  63  94 S6        30.08S
WALTERBORO     MOCLDY    64 N/A N/A CALM      30.08S
BEAUFORT       MOCLDY    62  60  93 SE3       30.08R


...EASTERN GEORGIA...

CITY           SKY/WX    TMP DP  RH WIND       PRES   REMARKS
AUGUSTA BUSH F MOCLDY    55  55 100 S5        30.06S
AUGUSTA DANIEL MOCLDY    61  59  93 CALM      30.07S
THOMSON        CLOUDY    61  61 100 CALM      30.10F
WASHINGTON     CLOUDY    61 N/A N/A W3        30.06S
CLAXTON        CLOUDY    61  61 100 CALM      30.08R
SYLVANIA       PTCLDY    61  61 100 SE3       30.08S
STATESBORO     CLEAR     58  58 100 CALM      30.08S
SAVANNAH       PTCLDY    64  62  93 S6        30.08S


...SOUTHERN NORTH CAROLINA...

CITY           SKY/WX    TMP DP  RH WIND       PRES   REMARKS
CHARLOTTE      CLOUDY    56  53  90 CALM      30.08S
MONROE         CLOUDY    58  55  90 W6        30.07R
WADESBORO      CLOUDY    55  54  96 CALM      30.08R FOG
ROCKINGHAM     CLOUDY    58  58  99 CALM      30.07R FOG
RUTHERFORDTON  CLOUDY    54  54  99 SE3       30.08S
ASHEVILLE      CLOUDY    52  48  86 N6        30.08F

$$


USA.gov is the U.S. government's official web portal to all federal, state and local government web resources and services.